Probability
2 3 3 3 3 2 2 2 1 0 0 0 0 0 0 0 0 0 0 0 0 0 0 0 0 0 0 0 0 0 0 0 0 0 0 0 0 0 0 0 0 0 0
2 2 2 2 2 1 1 1 0 0 0 0 0 0 0 0 0 0 0 0 0 0 0 0 0 0 0 0 0 0 0 0 0 0 0 0 0 0 0 0 0 0 0
1 1 1 1 1 0 0 0 0 0 0 0 0 0 0 0 0 0 0 0 0 0 0 0 0 0 0 0 0 0 0 0 0 0 0 0 0 0 0 0 0 0 0
0 0 0 0 0 0 0 0 0 0 0 0 0 0 0 0 0 0 0 0 0 0 0 0 0 0 0 0 0 0 0 0 0 0 0 0 0 0 0 0 0 0 0
0 0 0 0 0 0 0 0 0 0 0 0 0 0 0 0 0 0 0 0 0 0 0 0 0 0 0 0 0 0 0 0 0 0 0 0 0 0 0 0 0 0 0
0 0 0 0 0 0 0 0 0 0 0 0 0 0 0 0 0 0 0 0 0 0 0 0 0 0 0 0 0 0 0 0 0 0 0 0 0 0 0 0 0 0 0
0 0 0 0 0 0 0 0 0 0 0 0 0 0 0 0 0 0 0 0 0 0 0 0 0 0 0 0 0 0 0 0 0 0 0 0 0 0 0 0 0 0 0
0 0 0 0 0 0 0 0 0 0 0 0 0 0 0 0 0 0 0 0 0 0 0 0 0 0 0 0 0 0 0 0 0 0 0 0 0 0 0 0 0 0 0
0 0 0 0 0 0 0 0 0 0 0 0 0 0 0 0 0 0 0 0 0 0 0 0 0 0 0 0 0 0 0 0 0 0 0 0 0 0 0 0 0 0 0
0 0 0 0 0 0 0 0 0 0 0 0 0 0 0 0 0 0 0 0 0 0 0 0 0 0 0 0 0 0 0 0 0 0 0 0 0 0 0 0 0 0 0
0 0 0 0 0 0 0 0 0 0 0 0 0 0 0 0 0 0 0 0 0 0 0 0 0 0 0 0 0 0 0 0 0 0 0 0 0 0 0 0 0 0 0
0 0 0 0 0 0 0 0 0 0 0 0 0 0 0 0 0 0 0 0 0 0 0 0 0 0 0 0 0 0 0 0 0 0 0 0 0 0 0 0 0 0 0
0 0 0 0 0 0 0 0 0 0 0 0 0 0 0 0 0 0 0 0 0 0 0 0 0 0 0 0 0 0 0 0 0 0 0 0 0 0 0 0 0 0 0
0 0 0 0 0 0 0 0 0 0 0 0 0 0 0 0 0 0 0 0 0 0 0 0 0 0 0 0 0 0 0 0 0 0 0 0 0 0 0 0 0 0 0
0 0 0 0 0 0 0 0 0 0 0 0 0 0 0 0 0 0 0 0 0 0 0 0 0 0 0 0 0 0 0 0 0 0 0 0 0 0 0 0 0 0 0
0 0 0 0 0 0 0 0 0 0 0 0 0 0 0 0 0 0 0 0 0 0 0 0 0 0 0 0 0 0 0 0 0 0 0 0 0 0 0 0 0 0 0
0 0 0 0 0 0 0 0 0 0 0 0 0 0 0 0 0 0 0 0 0 0 0 0 0 0 0 0 0 0 0 0 0 0 0 0 0 0 0 0 0 0 0
0 0 0 0 0 0 0 0 0 0 0 0 0 0 0 0 0 0 0 0 0 0 0 0 0 0 0 0 0 0 0 0 0 0 0 0 0 0 0 0 0 0 0
0 0 0 0 0 0 0 0 0 0 0 0 0 0 0 0 0 0 0 0 0 0 0 0 0 0 0 0 0 0 0 0 0 0 0 0 0 0 0 0 0 0 0
0 0 0 0 0 0 0 0 0 0 0 0 0 0 0 0 0 0 0 0 0 0 0 0 0 0 0 0 0 0 0 0 0 0 0 0 0 0 0 0 0 0 0
0 0 0 0 0 0 0 0 0 0 0 0 0 0 0 0 0 0 0 0 0 0 0 0 0 0 0 0 0 0 0 0 0 0 0 0 0 0 0 0 0 0 0
0 0 0 0 0 0 0 0 0 0 0 0 0 0 0 0 0 0 0 0 0 0 0 0 0 0 0 0 0 0 0 0 0 0 0 0 0 0 0 0 0 0 0
0 0 0 0 0 0 0 0 0 0 0 0 0 0 0 0 0 0 0 0 0 0 0 0 0 0 0 0 0 0 0 0 0 0 0 0 0 0 0 0 0 0 0
0 0 0 0 0 0 0 0 0 0 0 0 0 0 0 0 0 0 0 0 0 0 0 0 0 0 0 0 0 0 0 0 0 0 0 0 0 0 0 0 0 0 0
0 0 0 0 0 0 0 0 0 0 0 0 0 0 0 0 0 0 0 0 0 0 0 0 0 0 0 0 0 0 0 0 0 0 0 0 0 0 0 0 0 0 0
0 0 0 0 0 0 0 0 0 0 0 0 0 0 0 0 0 0 0 0 0 0 0 0 0 0 0 0 0 0 0 0 0 0 0 0 0 0 0 0 0 0 0
Wind_Speed
11 10 11 11 10 10 10 10 9 8 8 9 9 9 9 8 8 7 8 7 8 8 7 7 7 7 5 5 4 4 4 4 4 2 2 2 1 0 1 2 2 2 3
10 11 11 10 10 10 10 9 8 8 8 8 8 9 9 8 7 7 8 8 8 8 8 8 7 6 7 5 4 5 4 4 3 2 1 2 1 1 1 3 2 1 2
11 11 11 10 10 10 9 8 8 8 8 8 8 8 7 7 7 7 7 8 8 7 7 7 7 7 7 5 5 5 4 4 2 1 1 1 0 1 1 3 2 1 2
10 11 10 9 9 8 8 7 7 7 7 7 7 7 8 8 8 7 7 7 7 7 7 7 7 7 6 6 5 6 5 4 2 2 2 2 2 2 2 2 2 1 2
10 10 9 8 7 7 7 7 7 7 8 7 8 8 9 9 8 7 5 7 6 6 6 6 6 6 6 5 5 5 5 5 4 4 3 3 3 3 3 3 3 3 2
9 9 8 7 7 7 7 7 7 7 7 8 9 9 10 8 10 12 8 5 5 5 4 4 5 5 3 2 3 3 3 4 4 4 4 4 4 4 3 3 3 3 3
8 8 7 7 7 7 7 7 7 7 7 8 8 8 8 9 12 13 12 4 5 5 5 4 6 7 8 5 3 2 2 2 1 1 3 4 3 4 4 4 4 4 3
8 7 7 7 8 7 7 7 6 6 6 6 7 7 7 8 11 12 12 3 3 4 5 6 6 7 8 7 5 3 2 1 1 1 1 3 3 3 3 4 5 4 3
8 7 6 7 7 7 7 6 5 5 5 6 6 6 6 6 9 10 10 2 3 5 6 7 6 6 8 10 6 5 5 4 2 2 4 5 6 6 3 3 4 4 3
7 7 6 6 6 6 6 5 4 4 4 6 6 6 6 5 6 9 9 2 3 4 5 6 9 6 7 9 6 5 5 5 6 6 4 5 5 5 5 3 3 3 3
7 6 6 5 6 6 4 3 3 4 5 5 6 6 5 4 4 7 9 5 4 3 3 4 4 5 6 7 5 3 3 5 6 5 3 2 1 1 1 2 1 1 1
6 6 5 4 5 6 4 3 4 4 4 4 5 5 4 4 4 5 6 7 5 4 4 3 2 3 5 6 5 6 9 8 4 3 3 2 2 2 2 2 1 1 2
6 5 5 5 5 4 3 3 3 3 3 4 4 4 5 4 3 3 4 5 6 3 3 2 2 4 6 5 5 8 7 4 3 3 3 2 2 2 2 2 2 2 3
5 5 4 4 4 3 2 2 3 3 3 3 3 4 5 4 4 3 2 2 2 2 3 3 5 6 6 6 5 3 2 2 2 2 3 3 3 2 2 1 2 2 2
4 4 4 4 5 6 7 7 7 7 6 5 5 5 4 5 3 4 4 4 5 5 6 3 2 1 1 1 1 1 1 2 2 2 3 3 3 2 2 2 1 2 2
4 4 3 4 4 5 6 7 11 8 9 11 10 7 6 5 3 4 6 7 8 9 6 3 2 3 3 3 3 2 2 3 3 3 3 3 3 3 3 3 2 2 2
3 3 3 3 4 4 5 6 5 5 6 7 7 6 5 3 2 3 6 8 9 7 3 2 2 3 3 3 3 3 3 2 2 3 3 3 3 4 4 3 2 3 3
4 4 3 3 3 4 4 5 6 6 5 3 2 1 1 1 3 4 5 6 4 1 1 2 2 2 3 3 3 3 3 3 3 3 3 3 3 3 4 4 3 3 3
3 3 3 3 3 3 3 3 3 5 4 4 4 3 4 4 5 7 5 3 2 2 3 3 3 3 3 3 3 2 2 2 3 3 3 3 4 4 4 4 4 5 3
3 4 2 3 3 3 3 3 3 3 3 3 3 2 3 5 4 3 2 1 2 3 3 3 2 2 2 3 3 3 3 3 3 3 4 4 4 4 5 5 4 4 3
5 5 3 2 3 3 3 3 3 3 3 3 2 3 2 2 1 1 1 2 3 3 3 3 3 3 3 4 4 5 5 4 4 5 5 5 5 5 4 4 4 4 4
4 6 5 4 4 3 2 2 3 3 3 3 3 4 2 2 1 2 2 2 2 2 2 2 4 4 4 5 4 5 5 6 6 6 7 7 6 6 5 5 4 4 3
4 5 5 4 4 4 3 3 3 3 2 2 2 2 3 0 1 2 1 1 2 2 2 2 2 4 4 3 3 4 6 6 5 6 6 7 8 7 6 5 6 5 4
5 5 5 5 4 5 4 3 3 3 3 3 2 2 2 2 1 1 1 2 2 2 2 2 2 4 4 4 4 6 5 5 6 6 8 8 9 8 6 5 5 5 4
5 5 5 5 4 4 4 4 3 3 3 3 2 2 2 2 2 2 2 2 2 2 2 2 2 4 5 7 7 6 5 5 5 5 7 7 9 8 7 7 5 4 4
6 6 5 5 4 4 4 4 4 3 3 3 3 2 1 1 2 2 2 1 1 2 2 2 3 4 5 6 6 5 5 6 6 7 6 6 7 6 6 6 7 5 5
Wind_Direction
74 77 80 82 83 83 82 84 86 87 85 84 82 80 77 74 72 75 77 74 73 70 68 66 59 45 33 32 34 45 47 58 84 91 110 138 155 292 307 286 267 221 191
75 76 76 79 81 82 83 84 85 85 84 83 82 81 80 77 72 75 79 75 73 70 64 59 53 51 43 32 30 46 49 50 68 85 126 154 188 203 259 277 283 273 199
82 81 79 78 81 82 82 82 81 82 82 80 79 80 80 77 74 75 76 75 71 68 64 61 56 47 39 30 33 34 36 44 44 67 112 119 117 16 321 311 323 324 312
84 83 82 82 84 87 89 88 86 86 84 80 77 75 72 66 61 63 76 77 76 73 68 63 60 52 38 17 38 29 25 14 12 20 45 50 42 10 5 345 342 348 343
90 89 88 90 91 91 88 85 83 82 83 80 78 73 67 59 45 40 63 82 78 81 83 82 80 80 63 41 44 28 21 19 19 16 29 36 30 17 9 345 359 348 346
94 96 98 97 93 90 88 85 81 77 78 76 73 70 64 55 38 36 38 60 71 72 78 94 106 89 80 68 46 32 25 32 25 16 21 20 17 12 357 349 356 352 340
100 101 101 99 93 90 91 88 85 82 81 82 83 80 73 48 34 27 19 34 67 62 53 53 66 59 39 23 352 265 234 233 243 8 8 2 8 10 353 343 340 328 304
101 98 97 97 96 94 91 87 83 82 84 86 89 87 78 52 33 21 3 38 86 76 61 55 65 57 31 6 349 15 54 86 226 218 353 340 352 348 336 316 305 309 301
100 96 92 91 95 96 95 92 90 92 95 95 95 95 87 63 32 20 1 5 91 83 72 53 55 60 26 8 5 24 33 18 13 315 283 281 285 283 283 316 330 348 344
110 102 96 93 93 94 97 102 106 109 109 104 99 93 87 74 35 22 2 10 96 103 103 90 67 52 26 16 12 16 18 358 341 325 298 275 262 254 234 232 298 339 349
107 106 102 101 101 96 96 104 114 105 101 103 105 100 92 85 68 36 26 26 27 67 96 92 72 38 18 3 354 354 342 314 303 301 305 306 304 277 195 218 242 341 357
112 109 105 99 101 100 93 92 105 119 124 125 125 122 115 104 72 53 35 35 22 36 54 67 72 2 344 332 328 322 323 316 297 326 352 3 7 6 349 330 308 280 251
114 113 110 99 93 103 115 130 143 156 147 140 134 128 121 111 92 44 24 25 23 30 31 3 309 299 309 299 279 298 313 323 352 356 352 348 335 314 303 304 279 265 268
125 124 119 115 111 95 66 68 58 49 68 97 105 107 107 87 59 30 14 37 18 28 349 298 276 273 275 283 291 283 281 338 350 339 336 329 322 319 316 314 310 296 293
127 126 125 110 98 83 67 51 63 53 47 49 52 69 80 79 49 26 17 16 8 8 334 301 270 302 324 353 351 345 344 5 358 344 337 329 331 338 325 318 322 320 322
130 133 129 128 129 123 113 88 59 73 70 67 63 70 81 88 86 25 10 356 350 353 343 335 18 12 7 8 3 4 25 30 3 342 340 343 342 337 337 340 348 337 326
128 126 128 131 136 134 133 129 121 91 65 64 65 71 83 91 37 352 342 335 322 326 323 354 33 17 7 3 3 9 10 8 347 331 343 350 346 342 339 340 346 339 328
143 134 139 139 133 129 137 145 147 147 143 133 119 127 163 282 301 304 316 320 303 272 357 32 23 16 12 4 2 4 354 347 354 348 347 344 339 336 334 332 329 333 321
146 139 135 126 126 127 134 128 129 138 141 146 153 176 224 250 276 282 294 288 332 38 34 32 24 17 5 351 346 344 335 332 348 337 334 339 338 335 331 326 325 329 312
114 106 129 141 133 133 136 135 128 131 135 144 164 165 176 206 231 235 224 339 33 48 30 8 2 6 7 348 348 356 357 351 356 354 352 347 339 333 329 325 322 320 319
153 144 171 161 133 135 140 137 134 137 135 134 119 86 22 284 224 100 73 58 54 47 47 356 337 11 27 15 14 355 345 360 17 11 356 343 333 326 318 317 323 330 334
164 160 165 149 140 138 138 143 141 143 149 159 163 158 200 275 20 74 68 56 62 52 61 9 351 30 36 20 1 344 0 23 19 8 347 332 326 324 324 325 329 328 336
170 158 148 144 142 139 176 170 162 164 166 181 176 165 173 193 68 86 86 79 75 61 53 26 15 40 36 17 354 21 31 22 358 339 328 325 325 322 319 323 327 333 346
168 161 152 155 165 172 177 171 181 180 174 183 182 161 139 143 116 103 96 93 86 76 66 51 40 46 41 33 36 53 39 7 339 325 326 317 309 307 316 322 321 333 340
173 161 157 161 169 171 173 180 184 184 182 180 177 172 161 164 158 144 121 118 130 100 82 79 60 51 42 55 50 42 18 355 341 327 313 303 304 311 320 322 325 331 346
174 162 163 163 168 174 181 185 187 189 188 179 169 159 181 176 138 122 121 109 115 125 107 95 88 80 66 67 58 41 9 349 337 323 305 294 299 309 327 329 336 347 359